Vertical_Velocity
3 -1 2 4 -0 -5 2 -2 8 -5 -0 -1 -2 5 -8 -1 -2 -3 0 2 2 -0
-2 -5 -5 -0 5 0 6 7 -4 2 3 -0 -0 -2 -9 -16 -4 -8 2 -1 0 1
4 0 1 1 -3 1 4 -1 0 -1 -3 -4 -4 -9 -12 -4 5 -0 0 -1 0 3
0 2 4 3 7 3 4 2 -1 -2 -1 4 -1 4 -1 0 -5 1 2 2 1 0
2 3 3 -1 -1 4 -2 3 2 3 5 2 -4 2 -1 -1 2 2 1 1 -6 3
4 0 1 3 2 3 5 -1 0 -3 -2 2 4 1 -2 0 1 2 2 -1 -0 0
2 0 1 1 0 6 4 0 0 -5 1 5 2 0 1 0 2 0 0 1 -1 1
3 2 1 1 2 1 -0 2 3 4 2 2 0 0 -3 2 4 -0 -3 -2 -0 1
2 3 2 2 1 1 3 2 2 -0 -1 -3 0 1 3 -2 -1 -0 2 7 2 1
1 0 1 1 0 1 2 0 -2 -1 -2 2 3 2 1 2 4 3 2 -0 -0 -1
-0 -0 -1 -1 -0 0 -0 2 4 3 2 1 1 3 5 3 0 1 0 -1 -3 -1
1 2 3 2 4 4 4 2 2 3 3 4 4 0 0 -0 -1 -3 -0 -0 -1 -3
-1 -0 0 2 2 2 2 2 1 -0 -1 -1 2 0 3 2 1 -2 -2 -0 1 3
0 1 1 1 1 2 1 1 1 2 2 -1 -3 -2 -6 -5 -2 2 3 0 2 3
Height
1494 1497 1500 1504 1506 1508 1511 1514 1514 1517 1522 1527 1528 1527 1529 1530 1533 1535 1533 1533 1532 1532
1492 1495 1497 1501 1504 1505 1510 1510 1514 1518 1517 1520 1522 1523 1524 1525 1527 1529 1529 1530 1530 1530
1489 1492 1496 1499 1501 1504 1506 1507 1510 1512 1514 1515 1518 1519 1520 1522 1524 1525 1523 1526 1526 1526
1487 1490 1493 1496 1499 1501 1503 1506 1506 1507 1510 1511 1513 1516 1516 1519 1520 1522 1520 1521 1522 1522
1484 1486 1489 1492 1495 1497 1498 1502 1504 1506 1508 1508 1509 1511 1514 1515 1517 1516 1518 1515 1519 1518
1480 1482 1485 1488 1491 1494 1495 1498 1501 1502 1507 1507 1505 1508 1510 1511 1513 1513 1513 1512 1513 1513
1477 1480 1483 1486 1488 1491 1492 1494 1497 1500 1503 1503 1502 1503 1506 1507 1510 1507 1508 1508 1508 1508
1476 1478 1480 1483 1484 1487 1489 1492 1494 1496 1498 1498 1500 1500 1504 1505 1504 1503 1505 1504 1504 1503
1474 1475 1477 1479 1482 1484 1486 1488 1489 1491 1493 1496 1497 1499 1500 1500 1499 1499 1500 1499 1499 1499
1471 1473 1475 1477 1479 1482 1484 1485 1487 1489 1491 1493 1495 1495 1495 1495 1495 1495 1494 1493 1493 1493
1470 1471 1473 1475 1477 1479 1481 1483 1485 1487 1489 1490 1491 1491 1491 1490 1489 1489 1488 1488 1488 1488
1469 1470 1472 1473 1475 1477 1479 1481 1482 1484 1485 1486 1486 1486 1485 1484 1484 1484 1484 1484 1484 1483
1467 1468 1470 1471 1473 1474 1476 1477 1478 1479 1480 1481 1481 1481 1481 1480 1479 1479 1479 1479 1479 1479
1464 1466 1467 1469 1470 1471 1473 1474 1475 1476 1476 1476 1476 1475 1475 1474 1475 1474 1474 1473 1473 1473